| time (UTC) | temp F | wind direction | speed MPH | gust MPH | rain 1hr in | rain 24hr in | rain mn in | humidity % | barometer mb |
| 20260508213032 | 45 | 0 | 0.0 | 0.0 | 0.03 | 0.08 | 0.08 | 86 | 1020.8 |
| 20260508212508 | 45 | 0 | 0.0 | 0.0 | 0.03 | 0.08 | 0.08 | 86 | 1020.8 |
| 20260508212011 | 45 | 0 | 0.0 | 0.0 | 0.03 | 0.08 | 0.08 | 86 | 1020.7 |
| 20260508211528 | 45 | 0 | 0.0 | 0.0 | 0.03 | 0.08 | 0.08 | 86 | 1020.7 |
| 20260508211011 | 45 | 0 | 0.0 | 0.0 | 0.03 | 0.08 | 0.08 | 86 | 1020.6 |
| 20260508210510 | 45 | 0 | 0.0 | 0.0 | 0.02 | 0.07 | 0.07 | 85 | 1020.5 |
| 20260508210031 | 45 | 0 | 0.0 | 0.0 | 0.02 | 0.07 | 0.07 | 85 | 1020.6 |
| 20260508205515 | 45 | 0 | 0.0 | 0.0 | 0.02 | 0.07 | 0.07 | 85 | 1020.6 |
| 20260508205014 | 45 | 0 | 0.0 | 0.0 | 0.02 | 0.07 | 0.07 | 85 | 1020.5 |
| 20260508204528 | 45 | 0 | 0.0 | 0.0 | 0.02 | 0.07 | 0.07 | 84 | 1020.5 |
| 20260508204009 | 46 | 0 | 0.0 | 0.0 | 0.01 | 0.06 | 0.06 | 84 | 1020.4 |
| 20260508203514 | 46 | 0 | 0.0 | 0.0 | 0.00 | 0.05 | 0.05 | 84 | 1020.4 |
| 20260508203027 | 46 | 0 | 0.0 | 0.0 | 0.00 | 0.05 | 0.05 | 84 | 1020.3 |
| 20260508202510 | 46 | 0 | 0.0 | 0.0 | 0.00 | 0.05 | 0.05 | 84 | 1020.2 |
| 20260508202009 | 46 | 0 | 0.0 | 0.0 | 0.00 | 0.05 | 0.05 | 84 | 1020.1 |
| 20260508201527 | 46 | 0 | 0.0 | 0.0 | 0.00 | 0.05 | 0.05 | 84 | 1020.1 |
| 20260508201008 | 46 | 0 | 0.0 | 0.0 | 0.00 | 0.05 | 0.05 | 84 | 1020.0 |
| 20260508200507 | 46 | 0 | 0.0 | 0.0 | 0.00 | 0.05 | 0.05 | 84 | 1019.8 |
| 20260508200041 | 46 | 0 | 0.0 | 0.0 | 0.01 | 0.05 | 0.05 | 84 | 1019.8 |
| 20260508195509 | 47 | 0 | 0.0 | 0.0 | 0.02 | 0.05 | 0.05 | 84 | 1019.7 |
| 20260508195010 | 47 | 0 | 0.0 | 0.0 | 0.03 | 0.05 | 0.05 | 84 | 1019.7 |
| 20260508194530 | 47 | 0 | 0.0 | 0.0 | 0.03 | 0.05 | 0.05 | 84 | 1019.5 |
| 20260508194014 | 47 | 0 | 0.0 | 0.0 | 0.03 | 0.05 | 0.05 | 84 | 1019.5 |
| 20260508193509 | 47 | 0 | 0.0 | 0.0 | 0.03 | 0.05 | 0.05 | 84 | 1019.4 |
| 20260508193029 | 47 | 0 | 0.0 | 0.0 | 0.04 | 0.05 | 0.05 | 83 | 1019.3 |
| 20260508192515 | 47 | 0 | 0.0 | 0.0 | 0.04 | 0.05 | 0.05 | 83 | 1019.2 |
| 20260508192014 | 47 | 0 | 0.0 | 0.0 | 0.04 | 0.05 | 0.05 | 83 | 1019.2 |
| 20260508191533 | 47 | 0 | 0.0 | 0.0 | 0.04 | 0.05 | 0.05 | 83 | 1019.1 |
| 20260508191010 | 47 | 0 | 0.0 | 0.0 | 0.04 | 0.05 | 0.05 | 82 | 1019.1 |
| 20260508190508 | 47 | 0 | 0.0 | 0.0 | 0.04 | 0.05 | 0.05 | 81 | 1019.1 |
| 20260508190027 | 47 | 0 | 0.0 | 0.0 | 0.03 | 0.04 | 0.04 | 80 | 1018.9 |
| 20260508185510 | 48 | 0 | 0.0 | 0.0 | 0.02 | 0.03 | 0.03 | 80 | 1018.8 |
| 20260508185010 | 48 | 0 | 0.0 | 0.0 | 0.01 | 0.02 | 0.02 | 80 | 1018.7 |
| 20260508184529 | 48 | 0 | 0.0 | 0.0 | 0.01 | 0.02 | 0.02 | 79 | 1018.8 |
| 20260508184010 | 48 | 0 | 0.0 | 0.0 | 0.01 | 0.02 | 0.02 | 79 | 1018.7 |
| 20260508183511 | 48 | 0 | 0.0 | 0.0 | 0.01 | 0.02 | 0.02 | 78 | 1018.6 |
| 20260508183028 | 48 | 0 | 0.0 | 0.0 | 0.00 | 0.01 | 0.01 | 79 | 1018.6 |
| 20260508182509 | 49 | 0 | 0.0 | 0.0 | 0.00 | 0.01 | 0.01 | 78 | 1018.5 |
| 20260508182011 | 49 | 0 | 0.0 | 1.0 | 0.00 | 0.01 | 0.01 | 78 | 1018.4 |
| 20260508181530 | 49 | 0 | 0.0 | 1.0 | 0.00 | 0.01 | 0.01 | 77 | 1018.2 |
| 20260508181015 | 50 | 0 | 0.0 | 0.0 | 0.00 | 0.01 | 0.01 | 77 | 1018.1 |
| 20260508180510 | 50 | 0 | 0.0 | 0.0 | 0.00 | 0.01 | 0.01 | 77 | 1018.0 |
| 20260508180031 | 50 | 0 | 0.0 | 0.0 | 0.00 | 0.01 | 0.01 | 76 | 1017.9 |
| 20260508175510 | 50 | 0 | 0.0 | 2.0 | 0.00 | 0.01 | 0.01 | 75 | 1017.9 |
| 20260508175011 | 50 | 0 | 0.0 | 4.0 | 0.00 | 0.01 | 0.01 | 74 | 1017.6 |
| 20260508174528 | 51 | 0 | 0.0 | 4.0 | 0.00 | 0.01 | 0.01 | 72 | 1017.7 |
| 20260508174016 | 51 | 0 | 0.0 | 3.0 | 0.00 | 0.01 | 0.01 | 72 | 1017.6 |
| 20260508173511 | 52 | 0 | 0.0 | 9.0 | 0.00 | 0.01 | 0.01 | 71 | 1017.5 |
| 20260508173031 | 52 | 0 | 0.0 | 9.0 | 0.00 | 0.01 | 0.01 | 69 | 1017.5 |
| 20260508172510 | 53 | 0 | 1.0 | 9.0 | 0.01 | 0.01 | 0.01 | 66 | 1017.3 |
| 20260508172012 | 53 | 0 | 0.0 | 0.0 | 0.01 | 0.01 | 0.01 | 61 | 1017.1 |
| 20260508171535 | 53 | 0 | 0.0 | 0.0 | 0.01 | 0.01 | 0.01 | 63 | 1017.1 |
| 20260508171017 | 53 | 0 | 0.0 | 0.0 | 0.01 | 0.01 | 0.01 | 66 | 1017.0 |
| 20260508170511 | 53 | 0 | 0.0 | 0.0 | 0.01 | 0.01 | 0.01 | 64 | 1016.8 |
| 20260508170030 | 52 | 0 | 0.0 | 0.0 | 0.01 | 0.01 | 0.01 | 63 | 1016.8 |
| 20260508165510 | 52 | 0 | 0.0 | 0.0 | 0.01 | 0.01 | 0.01 | 65 | 1016.8 |
| 20260508165008 | 52 | 0 | 0.0 | 0.0 | 0.01 | 0.01 | 0.01 | 63 | 1016.7 |
| 20260508164527 | 52 | 0 | 0.0 | 5.0 | 0.01 | 0.01 | 0.01 | 62 | 1016.7 |
| 20260508164011 | 52 | 0 | 0.0 | 5.0 | 0.01 | 0.01 | 0.01 | 61 | 1016.6 |
| 20260508163512 | 52 | 0 | 0.0 | 4.0 | 0.01 | 0.01 | 0.01 | 64 | 1016.6 |
| 20260508163029 | 53 | 0 | 0.0 | 4.0 | 0.01 | 0.01 | 0.01 | 62 | 1016.5 |
| 20260508162508 | 53 | 0 | 0.0 | 0.0 | 0.00 | 0.00 | 0.00 | 67 | 1016.6 |
| 20260508162008 | 53 | 0 | 0.0 | 0.0 | 0.00 | 0.00 | 0.00 | 66 | 1016.4 |
| 20260508161535 | 53 | 0 | 0.0 | 0.0 | 0.00 | 0.00 | 0.00 | 66 | 1016.3 |
| 20260508161009 | 54 | 0 | 0.0 | 0.0 | 0.00 | 0.00 | 0.00 | 65 | 1016.4 |
| 20260508160510 | 54 | 0 | 0.0 | 5.0 | 0.00 | 0.00 | 0.00 | 61 | 1016.2 |
| 20260508160034 | 54 | 0 | 0.0 | 5.0 | 0.00 | 0.00 | 0.00 | 59 | 1016.2 |
| 20260508155510 | 54 | 0 | 0.0 | 10.0 | 0.00 | 0.01 | 0.00 | 59 | 1016.3 |
| 20260508155008 | 54 | 0 | 0.0 | 10.0 | 0.00 | 0.01 | 0.00 | 60 | 1016.1 |
| 20260508154530 | 55 | 248 | 0.0 | 4.0 | 0.00 | 0.01 | 0.00 | 63 | 1016.0 |
| 20260508154008 | 55 | 0 | 0.0 | 4.0 | 0.00 | 0.01 | 0.00 | 58 | 1016.0 |
| 20260508153511 | 55 | 0 | 0.0 | 4.0 | 0.00 | 0.01 | 0.00 | 58 | 1015.9 |
| 20260508153028 | 56 | 0 | 0.0 | 2.0 | 0.00 | 0.01 | 0.00 | 59 | 1015.8 |
| 20260508152508 | 56 | 0 | 0.0 | 3.0 | 0.00 | 0.01 | 0.00 | 58 | 1015.9 |
| 20260508152009 | 56 | 0 | 0.0 | 6.0 | 0.00 | 0.01 | 0.00 | 56 | 1015.7 |
| 20260508151528 | 56 | 0 | 0.0 | 7.0 | 0.00 | 0.01 | 0.00 | 55 | 1015.7 |
| 20260508151017 | 57 | 300 | 0.0 | 7.0 | 0.00 | 0.01 | 0.00 | 57 | 1015.7 |
| 20260508150508 | 57 | 0 | 0.0 | 5.0 | 0.00 | 0.01 | 0.00 | 54 | 1015.7 |
| 20260508150038 | 57 | 0 | 0.0 | 0.0 | 0.00 | 0.01 | 0.00 | 53 | 1015.6 |
| 20260508145509 | 57 | 0 | 0.0 | 0.0 | 0.00 | 0.02 | 0.00 | 52 | 1015.5 |
| 20260508145015 | 57 | 0 | 0.0 | 0.0 | 0.00 | 0.02 | 0.00 | 51 | 1015.4 |
| 20260508144539 | 57 | 0 | 0.0 | 0.0 | 0.00 | 0.02 | 0.00 | 51 | 1015.4 |
| 20260508144013 | 57 | 0 | 0.0 | 15.0 | 0.00 | 0.02 | 0.00 | 53 | 1015.4 |
| 20260508143515 | 57 | 0 | 0.0 | 15.0 | 0.00 | 0.02 | 0.00 | 51 | 1015.4 |
| 20260508143036 | 58 | 0 | 0.0 | 9.0 | 0.00 | 0.02 | 0.00 | 53 | 1015.4 |
| 20260508142509 | 58 | 0 | 0.0 | 3.0 | 0.00 | 0.02 | 0.00 | 52 | 1015.3 |
| 20260508142009 | 58 | 0 | 0.0 | 8.0 | 0.00 | 0.02 | 0.00 | 51 | 1015.3 |
| 20260508141529 | 58 | 0 | 0.0 | 8.0 | 0.00 | 0.02 | 0.00 | 51 | 1015.3 |
| 20260508141012 | 59 | 0 | 0.0 | 4.0 | 0.00 | 0.02 | 0.00 | 49 | 1015.1 |
| 20260508140508 | 59 | 0 | 0.0 | 4.0 | 0.00 | 0.02 | 0.00 | 49 | 1014.9 |
| 20260508140036 | 59 | 0 | 0.0 | 11.0 | 0.00 | 0.02 | 0.00 | 45 | 1015.0 |
| 20260508135513 | 60 | 0 | 0.0 | 11.0 | 0.00 | 0.02 | 0.00 | 48 | 1015.0 |
| 20260508135011 | 60 | 286 | 2.0 | 11.0 | 0.00 | 0.02 | 0.00 | 46 | 1014.9 |
| 20260508134530 | 60 | 0 | 0.0 | 9.0 | 0.00 | 0.02 | 0.00 | 47 | 1014.8 |
| 20260508134009 | 59 | 0 | 0.0 | 9.0 | 0.00 | 0.02 | 0.00 | 48 | 1014.7 |
| 20260508133511 | 59 | 0 | 0.0 | 4.0 | 0.00 | 0.02 | 0.00 | 52 | 1014.8 |
| 20260508133030 | 58 | 0 | 0.0 | 3.0 | 0.00 | 0.02 | 0.00 | 52 | 1014.7 |
| 20260508132512 | 58 | 0 | 0.0 | 4.0 | 0.00 | 0.02 | 0.00 | 52 | 1014.7 |
| 20260508132011 | 58 | 0 | 0.0 | 7.0 | 0.00 | 0.02 | 0.00 | 53 | 1014.8 |
| 20260508131527 | 57 | 0 | 0.0 | 10.0 | 0.00 | 0.02 | 0.00 | 52 | 1014.7 |
| 20260508131017 | 57 | 280 | 1.0 | 10.0 | 0.00 | 0.02 | 0.00 | 52 | 1014.7 |
| 20260508130510 | 57 | 227 | 0.0 | 9.0 | 0.00 | 0.02 | 0.00 | 52 | 1014.9 |
| 20260508130028 | 56 | 0 | 0.0 | 10.0 | 0.00 | 0.02 | 0.00 | 55 | 1014.7 |
| 20260508125509 | 56 | 0 | 0.0 | 10.0 | 0.00 | 0.02 | 0.00 | 55 | 1014.8 |
| 20260508125011 | 56 | 226 | 0.0 | 10.0 | 0.00 | 0.02 | 0.00 | 54 | 1014.7 |
| 20260508124530 | 56 | 0 | 0.0 | 8.0 | 0.00 | 0.02 | 0.00 | 55 | 1014.6 |
| 20260508124010 | 56 | 0 | 0.0 | 8.0 | 0.00 | 0.02 | 0.00 | 55 | 1014.7 |
| 20260508123510 | 56 | 0 | 0.0 | 6.0 | 0.00 | 0.02 | 0.00 | 56 | 1014.6 |
| 20260508123032 | 56 | 296 | 0.0 | 7.0 | 0.00 | 0.02 | 0.00 | 56 | 1014.6 |
| 20260508122510 | 56 | 0 | 0.0 | 7.0 | 0.00 | 0.02 | 0.00 | 56 | 1014.6 |
| 20260508122008 | 55 | 0 | 0.0 | 15.0 | 0.00 | 0.02 | 0.00 | 56 | 1014.6 |
| 20260508121530 | 55 | 0 | 1.0 | 15.0 | 0.00 | 0.02 | 0.00 | 56 | 1014.5 |
| 20260508121010 | 56 | 0 | 1.0 | 9.0 | 0.00 | 0.02 | 0.00 | 56 | 1014.7 |
| 20260508120510 | 56 | 0 | 0.0 | 5.0 | 0.00 | 0.02 | 0.00 | 58 | 1014.5 |
| 20260508120027 | 55 | 280 | 0.0 | 11.0 | 0.00 | 0.02 | 0.00 | 55 | 1014.5 |
| 20260508115510 | 55 | 0 | 1.0 | 11.0 | 0.00 | 0.02 | 0.00 | 57 | 1014.6 |
| 20260508115009 | 55 | 226 | 0.0 | 8.0 | 0.00 | 0.02 | 0.00 | 57 | 1014.5 |
| 20260508114534 | 55 | 232 | 0.0 | 10.0 | 0.00 | 0.02 | 0.00 | 58 | 1014.4 |
| 20260508114010 | 55 | 0 | 1.0 | 10.0 | 0.00 | 0.02 | 0.00 | 57 | 1014.4 |
| 20260508113509 | 55 | 0 | 0.0 | 5.0 | 0.00 | 0.02 | 0.00 | 59 | 1014.3 |
| 20260508113044 | 55 | 0 | 0.0 | 8.0 | 0.00 | 0.02 | 0.00 | 58 | 1014.3 |
| 20260508112509 | 55 | 0 | 0.0 | 10.0 | 0.00 | 0.02 | 0.00 | 59 | 1014.2 |
| 20260508112012 | 55 | 287 | 0.0 | 10.0 | 0.00 | 0.02 | 0.00 | 60 | 1014.3 |
| 20260508111530 | 55 | 290 | 0.0 | 7.0 | 0.00 | 0.02 | 0.00 | 60 | 1014.2 |
| 20260508111011 | 55 | 0 | 0.0 | 8.0 | 0.00 | 0.02 | 0.00 | 60 | 1014.2 |
| 20260508110508 | 54 | 0 | 1.0 | 9.0 | 0.00 | 0.02 | 0.00 | 59 | 1014.1 |
| 20260508110027 | 55 | 0 | 1.0 | 9.0 | 0.00 | 0.02 | 0.00 | 60 | 1014.1 |
| 20260508105511 | 55 | 0 | 1.0 | 12.0 | 0.00 | 0.02 | 0.00 | 60 | 1014.0 |
| 20260508105010 | 54 | 0 | 0.0 | 12.0 | 0.00 | 0.02 | 0.00 | 60 | 1013.9 |
| 20260508104532 | 54 | 0 | 0.0 | 8.0 | 0.00 | 0.02 | 0.00 | 60 | 1014.0 |
| 20260508104011 | 54 | 0 | 0.0 | 13.0 | 0.00 | 0.02 | 0.00 | 60 | 1014.0 |
| 20260508103511 | 54 | 0 | 1.0 | 13.0 | 0.00 | 0.02 | 0.00 | 58 | 1014.0 |
| 20260508103027 | 54 | 0 | 1.0 | 12.0 | 0.00 | 0.02 | 0.00 | 58 | 1013.9 |
| 20260508102517 | 54 | 0 | 0.0 | 6.0 | 0.00 | 0.02 | 0.00 | 61 | 1014.0 |
| 20260508102012 | 53 | 0 | 0.0 | 6.0 | 0.00 | 0.02 | 0.00 | 60 | 1014.0 |
| 20260508101535 | 53 | 0 | 0.0 | 8.0 | 0.00 | 0.02 | 0.00 | 60 | 1013.9 |
| 20260508101011 | 53 | 0 | 0.0 | 8.0 | 0.00 | 0.02 | 0.00 | 62 | 1014.0 |
| 20260508100509 | 53 | 280 | 0.0 | 7.0 | 0.00 | 0.02 | 0.00 | 63 | 1013.9 |
| 20260508100034 | 52 | 0 | 0.0 | 3.0 | 0.00 | 0.02 | 0.00 | 61 | 1013.9 |
| 20260508095517 | 52 | 0 | 0.0 | 8.0 | 0.00 | 0.02 | 0.00 | 62 | 1014.0 |
| 20260508095012 | 52 | 0 | 0.0 | 8.0 | 0.00 | 0.02 | 0.00 | 63 | 1013.8 |
| 20260508094528 | 51 | 237 | 0.0 | 8.0 | 0.00 | 0.02 | 0.00 | 62 | 1013.9 |
| 20260508094009 | 51 | 284 | 1.0 | 8.0 | 0.00 | 0.02 | 0.00 | 61 | 1013.8 |
| 20260508093511 | 51 | 0 | 0.0 | 1.0 | 0.00 | 0.02 | 0.00 | 63 | 1013.7 |
| 20260508093029 | 51 | 0 | 0.0 | 1.0 | 0.00 | 0.02 | 0.00 | 63 | 1013.7 |
| 20260508092512 | 51 | 0 | 0.0 | 8.0 | 0.00 | 0.02 | 0.00 | 64 | 1013.7 |
| 20260508092011 | 51 | 0 | 0.0 | 8.0 | 0.00 | 0.02 | 0.00 | 65 | 1013.7 |
| 20260508091530 | 51 | 0 | 0.0 | 11.0 | 0.00 | 0.02 | 0.00 | 64 | 1013.6 |
| 20260508091010 | 50 | 0 | 0.0 | 11.0 | 0.00 | 0.02 | 0.00 | 66 | 1013.6 |
| 20260508090517 | 50 | 261 | 1.0 | 9.0 | 0.00 | 0.02 | 0.00 | 66 | 1013.6 |
| 20260508090033 | 50 | 0 | 0.0 | 1.0 | 0.00 | 0.02 | 0.00 | 67 | 1013.5 |
| 20260508085508 | 50 | 0 | 0.0 | 7.0 | 0.00 | 0.02 | 0.00 | 68 | 1013.4 |
| 20260508085007 | 50 | 0 | 0.0 | 7.0 | 0.00 | 0.02 | 0.00 | 68 | 1013.5 |
| 20260508084526 | 49 | 0 | 0.0 | 7.0 | 0.00 | 0.02 | 0.00 | 67 | 1013.4 |
| 20260508084010 | 49 | 0 | 0.0 | 8.0 | 0.00 | 0.02 | 0.00 | 67 | 1013.4 |
| 20260508083510 | 49 | 0 | 0.0 | 8.0 | 0.00 | 0.02 | 0.00 | 69 | 1013.4 |
| 20260508083036 | 49 | 0 | 0.0 | 4.0 | 0.00 | 0.02 | 0.00 | 70 | 1013.4 |
| 20260508082517 | 49 | 0 | 0.0 | 3.0 | 0.00 | 0.02 | 0.00 | 71 | 1013.3 |
| 20260508082008 | 49 | 0 | 0.0 | 4.0 | 0.00 | 0.02 | 0.00 | 70 | 1013.3 |
| 20260508081528 | 49 | 0 | 0.0 | 7.0 | 0.00 | 0.02 | 0.00 | 70 | 1013.3 |
| 20260508081008 | 49 | 0 | 0.0 | 7.0 | 0.00 | 0.02 | 0.00 | 71 | 1013.2 |
| 20260508080508 | 48 | 0 | 0.0 | 0.0 | 0.00 | 0.02 | 0.00 | 72 | 1013.1 |
| 20260508080029 | 48 | 0 | 0.0 | 0.0 | 0.00 | 0.02 | 0.00 | 72 | 1013.1 |
| 20260508075509 | 48 | 0 | 0.0 | 5.0 | 0.00 | 0.02 | 0.00 | 72 | 1013.1 |
| 20260508075011 | 48 | 0 | 0.0 | 5.0 | 0.00 | 0.02 | 0.00 | 71 | 1013.0 |
| 20260508074528 | 48 | 0 | 0.0 | 7.0 | 0.00 | 0.02 | 0.00 | 70 | 1012.8 |
| 20260508074008 | 48 | 0 | 0.0 | 7.0 | 0.00 | 0.02 | 0.00 | 70 | 1012.8 |
| 20260508073511 | 48 | 246 | 0.0 | 7.0 | 0.00 | 0.02 | 0.00 | 70 | 1012.8 |
| 20260508073028 | 48 | 0 | 0.0 | 5.0 | 0.00 | 0.02 | 0.00 | 70 | 1012.7 |
| 20260508072509 | 48 | 0 | 0.0 | 9.0 | 0.00 | 0.02 | 0.00 | 70 | 1012.6 |
| 20260508072010 | 48 | 0 | 0.0 | 9.0 | 0.00 | 0.02 | 0.00 | 71 | 1012.6 |
| 20260508071530 | 48 | 0 | 0.0 | 9.0 | 0.00 | 0.02 | 0.00 | 71 | 1012.5 |
| 20260508071010 | 48 | 224 | 0.0 | 10.0 | 0.00 | 0.02 | 0.00 | 71 | 1012.4 |
| 20260508070506 | 47 | 0 | 0.0 | 11.0 | 0.00 | 0.02 | 0.00 | 72 | 1012.3 |
| 20260508070028 | 47 | 280 | 2.0 | 11.0 | 0.00 | 0.02 | 0.00 | 71 | 1012.2 |
| 20260508065510 | 47 | 0 | 1.0 | 9.0 | 0.00 | 0.02 | 0.00 | 74 | 1012.3 |
| 20260508065010 | 47 | 0 | 0.0 | 7.0 | 0.00 | 0.02 | 0.00 | 75 | 1012.2 |
| 20260508064548 | 47 | 0 | 0.0 | 7.0 | 0.00 | 0.02 | 0.00 | 76 | 1012.1 |
| 20260508064009 | 47 | 249 | 1.0 | 8.0 | 0.00 | 0.02 | 0.00 | 76 | 1012.0 |
| 20260508063509 | 47 | 262 | 0.0 | 8.0 | 0.00 | 0.02 | 0.00 | 77 | 1012.1 |
| 20260508063030 | 47 | 0 | 0.0 | 7.0 | 0.00 | 0.02 | 0.00 | 78 | 1012.0 |
| 20260508062511 | 47 | 0 | 0.0 | 6.0 | 0.00 | 0.02 | 0.00 | 78 | 1012.0 |
| 20260508062009 | 47 | 275 | 1.0 | 6.0 | 0.00 | 0.02 | 0.00 | 78 | 1011.9 |
| 20260508061527 | 47 | 289 | 1.0 | 4.0 | 0.00 | 0.02 | 0.00 | 78 | 1011.9 |
| 20260508061015 | 47 | 0 | 0.0 | 5.0 | 0.00 | 0.02 | 0.00 | 79 | 1011.8 |
| 20260508060518 | 47 | 0 | 0.0 | 5.0 | 0.00 | 0.02 | 0.00 | 79 | 1011.7 |
| 20260508060035 | 47 | 0 | 0.0 | 2.0 | 0.00 | 0.02 | 0.00 | 80 | 1011.7 |
| 20260508055510 | 47 | 302 | 0.0 | 6.0 | 0.00 | 0.02 | 0.00 | 80 | 1011.6 |
| 20260508055012 | 47 | 0 | 0.0 | 7.0 | 0.00 | 0.02 | 0.00 | 80 | 1011.4 |
| 20260508054548 | 47 | 0 | 0.0 | 7.0 | 0.00 | 0.02 | 0.00 | 80 | 1011.3 |
| 20260508054010 | 47 | 0 | 0.0 | 0.0 | 0.00 | 0.02 | 0.00 | 81 | 1011.2 |
| 20260508053510 | 47 | 0 | 0.0 | 6.0 | 0.00 | 0.02 | 0.00 | 80 | 1011.2 |
| 20260508053028 | 47 | 0 | 0.0 | 6.0 | 0.00 | 0.02 | 0.00 | 80 | 1011.2 |
| 20260508052515 | 47 | 280 | 0.0 | 4.0 | 0.00 | 0.02 | 0.00 | 80 | 1011.1 |
| 20260508052010 | 47 | 0 | 0.0 | 3.0 | 0.00 | 0.02 | 0.00 | 80 | 1011.2 |
| 20260508051531 | 47 | 0 | 0.0 | 0.0 | 0.00 | 0.02 | 0.00 | 80 | 1011.1 |
| 20260508051008 | 47 | 0 | 0.0 | 7.0 | 0.00 | 0.02 | 0.00 | 79 | 1011.1 |
| 20260508050511 | 47 | 0 | 0.0 | 8.0 | 0.00 | 0.02 | 0.00 | 79 | 1011.0 |
| 20260508050036 | 47 | 232 | 1.0 | 8.0 | 0.00 | 0.02 | 0.00 | 79 | 1011.1 |
| 20260508045511 | 47 | 240 | 0.0 | 8.0 | 0.00 | 0.02 | 0.00 | 79 | 1011.0 |
| 20260508045010 | 47 | 241 | 0.0 | 5.0 | 0.00 | 0.02 | 0.00 | 79 | 1011.0 |
| 20260508044529 | 47 | 0 | 0.0 | 7.0 | 0.00 | 0.02 | 0.00 | 79 | 1010.8 |
| 20260508044012 | 46 | 0 | 0.0 | 8.0 | 0.00 | 0.02 | 0.00 | 79 | 1010.8 |
| 20260508043510 | 46 | 226 | 1.0 | 8.0 | 0.00 | 0.02 | 0.00 | 80 | 1010.7 |
| 20260508043041 | 46 | 0 | 0.0 | 7.0 | 0.00 | 0.02 | 0.00 | 80 | 1010.8 |
| 20260508042510 | 46 | 0 | 0.0 | 3.0 | 0.00 | 0.02 | 0.00 | 80 | 1010.8 |
| 20260508042010 | 46 | 0 | 0.0 | 3.0 | 0.00 | 0.02 | 0.00 | 80 | 1010.7 |
| 20260508041533 | 46 | 0 | 0.0 | 3.0 | 0.00 | 0.02 | 0.00 | 80 | 1010.6 |
| 20260508041012 | 46 | 0 | 0.0 | 2.0 | 0.00 | 0.02 | 0.00 | 79 | 1010.7 |
| 20260508040511 | 46 | 0 | 0.0 | 0.0 | 0.00 | 0.02 | 0.00 | 79 | 1010.6 |
| 20260508040029 | 46 | 0 | 0.0 | 0.0 | 0.00 | 0.02 | 0.00 | 78 | 1010.7 |
| 20260508035517 | 46 | 0 | 0.0 | 6.0 | 0.00 | 0.02 | 0.00 | 78 | 1010.7 |
| 20260508035012 | 46 | 0 | 0.0 | 6.0 | 0.00 | 0.02 | 0.00 | 78 | 1010.6 |
| 20260508034530 | 47 | 0 | 0.0 | 2.0 | 0.00 | 0.02 | 0.00 | 78 | 1010.6 |
| 20260508034010 | 47 | 0 | 0.0 | 2.0 | 0.00 | 0.02 | 0.00 | 77 | 1010.5 |
| 20260508033512 | 47 | 276 | 0.0 | 10.0 | 0.00 | 0.02 | 0.00 | 77 | 1010.3 |
| 20260508033032 | 47 | 0 | 0.0 | 10.0 | 0.00 | 0.02 | 0.00 | 77 | 1010.4 |
| 20260508032511 | 47 | 0 | 0.0 | 8.0 | 0.00 | 0.02 | 0.00 | 77 | 1010.3 |
| 20260508032010 | 47 | 208 | 1.0 | 8.0 | 0.00 | 0.02 | 0.00 | 77 | 1010.3 |
| 20260508031528 | 47 | 0 | 0.0 | 6.0 | 0.00 | 0.02 | 0.00 | 77 | 1010.3 |
| 20260508031010 | 47 | 0 | 0.0 | 4.0 | 0.00 | 0.02 | 0.00 | 77 | 1010.2 |
| 20260508030515 | 47 | 0 | 0.0 | 4.0 | 0.00 | 0.02 | 0.00 | 77 | 1010.3 |
| 20260508030032 | 47 | 0 | 0.0 | 5.0 | 0.00 | 0.02 | 0.00 | 77 | 1010.2 |
| 20260508025510 | 47 | 0 | 0.0 | 6.0 | 0.00 | 0.02 | 0.00 | 77 | 1010.2 |
| 20260508025037 | 47 | 0 | 0.0 | 6.0 | 0.00 | 0.02 | 0.00 | 76 | 1010.2 |
| 20260508024527 | 47 | 0 | 0.0 | 5.0 | 0.00 | 0.02 | 0.00 | 76 | 1010.4 |
| 20260508024011 | 48 | 0 | 0.0 | 7.0 | 0.00 | 0.02 | 0.00 | 76 | 1010.3 |
| 20260508023511 | 48 | 0 | 0.0 | 7.0 | 0.00 | 0.02 | 0.00 | 76 | 1010.5 |
| 20260508023031 | 48 | 0 | 0.0 | 8.0 | 0.00 | 0.02 | 0.00 | 76 | 1010.5 |
| 20260508022509 | 48 | 0 | 0.0 | 8.0 | 0.00 | 0.02 | 0.00 | 76 | 1010.4 |
| 20260508022014 | 48 | 0 | 0.0 | 10.0 | 0.00 | 0.02 | 0.00 | 76 | 1010.4 |
| 20260508021529 | 48 | 144 | 0.0 | 10.0 | 0.00 | 0.02 | 0.00 | 76 | 1010.4 |
| 20260508021017 | 48 | 172 | 1.0 | 10.0 | 0.00 | 0.02 | 0.00 | 76 | 1010.4 |
| 20260508020511 | 48 | 0 | 0.0 | 5.0 | 0.00 | 0.02 | 0.00 | 75 | 1010.5 |
| 20260508020030 | 48 | 0 | 0.0 | 6.0 | 0.00 | 0.02 | 0.00 | 75 | 1010.4 |
| 20260508015511 | 48 | 0 | 0.0 | 6.0 | 0.00 | 0.02 | 0.00 | 75 | 1010.4 |
| 20260508015017 | 48 | 0 | 0.0 | 6.0 | 0.00 | 0.02 | 0.00 | 75 | 1010.4 |
| 20260508014531 | 48 | 0 | 1.0 | 6.0 | 0.00 | 0.02 | 0.00 | 75 | 1010.5 |
| 20260508014013 | 48 | 0 | 0.0 | 7.0 | 0.00 | 0.02 | 0.00 | 75 | 1010.4 |
| 20260508013511 | 48 | 0 | 0.0 | 8.0 | 0.00 | 0.02 | 0.00 | 78 | 1010.4 |
| 20260508013027 | 48 | 163 | 0.0 | 8.0 | 0.00 | 0.02 | 0.00 | 75 | 1010.4 |
| 20260508012515 | 48 | 0 | 0.0 | 7.0 | 0.00 | 0.02 | 0.00 | 75 | 1010.4 |
| 20260508012013 | 48 | 0 | 0.0 | 7.0 | 0.00 | 0.02 | 0.00 | 75 | 1010.4 |
| 20260508011536 | 48 | 0 | 0.0 | 7.0 | 0.00 | 0.02 | 0.00 | 75 | 1010.3 |
| 20260508011015 | 47 | 0 | 0.0 | 7.0 | 0.00 | 0.02 | 0.00 | 75 | 1010.2 |
| 20260508010510 | 47 | 0 | 0.0 | 7.0 | 0.00 | 0.02 | 0.00 | 75 | 1010.2 |
| 20260508010037 | 47 | 0 | 1.0 | 7.0 | 0.00 | 0.02 | 0.00 | 75 | 1010.3 |
| 20260508005510 | 47 | 0 | 0.0 | 6.0 | 0.00 | 0.02 | 0.00 | 75 | 1010.4 |
| 20260508005012 | 48 | 0 | 0.0 | 6.0 | 0.00 | 0.02 | 0.00 | 74 | 1010.4 |
| 20260508004537 | 48 | 0 | 0.0 | 7.0 | 0.00 | 0.02 | 0.00 | 75 | 1010.5 |
| 20260508004010 | 48 | 0 | 0.0 | 7.0 | 0.00 | 0.02 | 0.00 | 75 | 1010.5 |
| 20260508003513 | 48 | 0 | 0.0 | 5.0 | 0.00 | 0.02 | 0.00 | 74 | 1010.4 |
| 20260508003027 | 48 | 0 | 0.0 | 7.0 | 0.00 | 0.02 | 0.00 | 74 | 1010.3 |
| 20260508002510 | 48 | 167 | 0.0 | 7.0 | 0.00 | 0.02 | 0.00 | 74 | 1010.4 |
| 20260508002014 | 48 | 0 | 0.0 | 10.0 | 0.00 | 0.02 | 0.00 | 74 | 1010.4 |
| 20260508001530 | 48 | 0 | 0.0 | 10.0 | 0.00 | 0.02 | 0.00 | 74 | 1010.2 |
| 20260508001011 | 48 | 0 | 0.0 | 10.0 | 0.00 | 0.02 | 0.00 | 75 | 1010.1 |
| 20260508000519 | 48 | 149 | 1.0 | 9.0 | 0.00 | 0.02 | 0.00 | 75 | 1010.3 |
| 20260508000030 | 48 | 0 | 0.0 | 9.0 | 0.00 | 0.02 | 0.00 | 75 | 1010.2 |
| 20260507235511 | 48 | 0 | 0.0 | 7.0 | 0.00 | 0.02 | 0.00 | 75 | 1010.3 |
| 20260507235012 | 48 | 0 | 0.0 | 1.0 | 0.00 | 0.02 | 0.00 | 75 | 1010.3 |
| 20260507234538 | 48 | 0 | 0.0 | 1.0 | 0.00 | 0.02 | 0.00 | 75 | 1010.3 |
| 20260507234011 | 48 | 0 | 0.0 | 7.0 | 0.00 | 0.02 | 0.00 | 76 | 1010.3 |
| 20260507233512 | 47 | 0 | 0.0 | 7.0 | 0.00 | 0.02 | 0.00 | 76 | 1010.4 |
| 20260507233033 | 47 | 0 | 0.0 | 7.0 | 0.00 | 0.02 | 0.00 | 76 | 1010.4 |
| 20260507232515 | 47 | 0 | 0.0 | 7.0 | 0.00 | 0.02 | 0.00 | 76 | 1010.4 |
| 20260507232013 | 47 | 0 | 0.0 | 4.0 | 0.00 | 0.02 | 0.00 | 76 | 1010.4 |
| 20260507231534 | 47 | 0 | 0.0 | 1.0 | 0.00 | 0.02 | 0.00 | 76 | 1010.5 |
| 20260507231011 | 47 | 0 | 0.0 | 6.0 | 0.00 | 0.02 | 0.00 | 75 | 1010.6 |
| 20260507230512 | 47 | 0 | 0.0 | 8.0 | 0.00 | 0.02 | 0.00 | 75 | 1010.4 |
| 20260507230029 | 47 | 0 | 1.0 | 8.0 | 0.00 | 0.02 | 0.00 | 75 | 1010.5 |
| 20260507225511 | 46 | 0 | 0.0 | 5.0 | 0.00 | 0.02 | 0.02 | 76 | 1010.5 |
| 20260507225012 | 46 | 0 | 0.0 | 3.0 | 0.00 | 0.02 | 0.02 | 76 | 1010.5 |
| 20260507224529 | 46 | 0 | 0.0 | 3.0 | 0.00 | 0.02 | 0.02 | 75 | 1010.6 |
| 20260507224009 | 46 | 0 | 0.0 | 4.0 | 0.00 | 0.02 | 0.02 | 75 | 1010.5 |
| 20260507223518 | 46 | 0 | 0.0 | 6.0 | 0.00 | 0.02 | 0.02 | 76 | 1010.5 |
| 20260507223028 | 46 | 0 | 0.0 | 7.0 | 0.00 | 0.02 | 0.02 | 76 | 1010.6 |
| 20260507222521 | 45 | 0 | 0.0 | 7.0 | 0.00 | 0.02 | 0.02 | 78 | 1010.6 |
| 20260507222014 | 44 | 159 | 0.0 | 9.0 | 0.00 | 0.02 | 0.02 | 80 | 1010.5 |
| 20260507221531 | 42 | 0 | 1.0 | 9.0 | 0.00 | 0.02 | 0.02 | 82 | 1010.6 |
| 20260507221016 | 42 | 0 | 0.0 | 0.0 | 0.00 | 0.02 | 0.02 | 82 | 1010.5 |
| 20260507220519 | 42 | 0 | 0.0 | 0.0 | 0.00 | 0.02 | 0.02 | 81 | 1010.7 |
| 20260507220028 | 42 | 0 | 0.0 | 0.0 | 0.00 | 0.02 | 0.02 | 78 | 1010.8 |
| 20260507215514 | 42 | 0 | 0.0 | 0.0 | 0.00 | 0.02 | 0.02 | 78 | 1010.8 |
| 20260507215016 | 43 | 0 | 0.0 | 0.0 | 0.00 | 0.02 | 0.02 | 78 | 1010.5 |
| 20260507214530 | 43 | 0 | 0.0 | 0.0 | 0.00 | 0.02 | 0.02 | 78 | 1010.5 |
| 20260507214014 | 44 | 0 | 0.0 | 0.0 | 0.00 | 0.02 | 0.02 | 78 | 1010.7 |
| 20260507213512 | 44 | 0 | 0.0 | 6.0 | 0.00 | 0.02 | 0.02 | 79 | 1010.8 |